Location: Rancho Del Sol Observatory
(38.7214°N, 120.6350°W)
Time: 15:59:32
(UTC-08:00)

Courier 1B Rocket - Pass Details

Date: 02 February 2020
Orbit: 920 x 1202 km, 28.2° (Epoch: 20 February)

Event Time Altitude Azimuth Distance (km) Brightness Sun altitude
Rises 11:05:21 0° 259° (W) 4,074 8.2 32.1°
Reaches altitude 10° 11:08:31 10° 251° (WSW) 3,088 7.7 32.3°
Maximum altitude 11:15:16 35° 189° (S) 1,760 8.0 32.7°
Drops below altitude 10° 11:21:40 10° 127° (SE) 2,928 8.4 33.0°
Sets 11:24:35 0° 118° (ESE) 3,839 8.7 33.2°
